OSCAR 7 1 7530U 74089B 26034.50227517 -.00000049 00000-0 -13404-4 0 9998 2 7530 101.9970 46.3257 0012292 27.5310 127.1262 12.53695608343764 OSCAR 11 (UOSAT 2) 1 14781U 84021B 26034.50153589 .00001938 00000-0 20482-3 0 9997 2 14781 97.7889 1.7406 0006033 266.2546 93.7983 14.90371380237212 OSCAR 19 (LUSAT) 1 20442U 90005G 26034.50308000 .00000168 00000-0 76802-4 0 9999 2 20442 98.8949 52.5612 0010709 235.1958 124.8219 14.34072799883239 EYESAT A 1 22825U 93061C 26034.16380432 .00000129 00000-0 66192-4 0 9990 2 22825 98.7057 101.5348 0009252 129.6165 230.5836 14.30900640687833 ITAMSAT 1 22826U 93061D 26034.18297706 .00000163 00000-0 78596-4 0 9993 2 22826 98.7005 101.4582 0009922 115.0097 245.2117 14.31323796688145 RADIO ROSTO 1 23439U 94085A 26034.46154125 -.00000024 00000-0 52757-3 0 9996 2 23439 64.8154 159.4872 0151452 28.5492 332.3623 11.27583695280824 JAS 2 1 24278U 96046B 26034.48982054 -.00000003 00000-0 29603-4 0 9991 2 24278 98.5426 261.5284 0350885 83.3372 280.7570 13.53266387455087 TECHSAT 1B 1 25397U 98043D 26034.39058794 .00000097 00000-0 61964-4 0 9996 2 25397 98.9980 23.8346 0000588 190.4804 169.6361 14.24395805432286 ISS (ZARYA) 1 25544U 98067A 26034.04958913 .00010203 00000-0 19716-3 0 9997 2 25544 51.6308 243.5963 0011047 59.0686 301.1387 15.48354885550963 PCSAT 1 26931U 01043C 26033.98358421 .00000155 00000-0 88839-4 0 9994 2 26931 67.0489 231.3694 0007059 266.6155 93.4139 14.31891180271237 SAUDISAT 1C 1 27607U 02058C 26034.48894853 .00001893 00000-0 24175-3 0 9994 2 27607 64.5526 182.5321 0074237 286.8699 72.4275 14.82639606244636 CUTE-1 1 27844U 03031E 26034.49149958 .00000381 00000-0 18433-3 0 9990 2 27844 98.6772 44.7182 0009054 208.2248 151.8442 14.24235794172642 CUBESAT XI 4 1 27848U 03031J 26034.48377407 .00000316 00000-0 15816-3 0 9995 2 27848 98.6801 44.5306 0008661 227.7020 132.3425 14.23535418172350 MOZHAYETS 4 1 27939U 03042A 26034.56280826 .00001742 00000-0 27835-3 0 9993 2 27939 98.3391 215.1829 0010950 338.0681 113.6295 14.73151834195871 CUBESAT XI 5 1 28895U 05043F 26034.39375588 .00002235 00000-0 36269-3 0 9998 2 28895 98.2771 187.3868 0013162 269.8776 90.0922 14.72158237 82065 CUTE-1.7+APD 2 1 32785U 08021C 26034.47703181 .00007623 00000-0 50094-3 0 9991 2 32785 97.8156 13.3636 0010827 117.8773 242.3553 15.07853547965039 SEEDS 1 32791U 08021J 26034.48164572 .00019703 00000-0 73306-3 0 9997 2 32791 97.7483 26.5409 0005531 74.4728 285.7120 15.27531157966849 YUBELEINY 1 32953U 08025A 26034.50447575 .00000101 00000-0 65408-3 0 9997 2 32953 82.4998 78.6015 0018452 241.1349 118.7879 12.43174748803086 KKS-1 (KISEKI) 1 33499U 09002H 26034.45349918 .00002125 00000-0 27018-3 0 9998 2 33499 98.1193 314.8318 0008301 14.3553 345.7894 14.82684881916378 SWISSCUBE 1 35932U 09051B 26034.26239358 .00001500 00000-0 30803-3 0 9993 2 35932 98.4133 299.7898 0005553 272.2455 87.8109 14.62154933869586 BEESAT 1 35933U 09051C 26034.47808649 .00001237 00000-0 25974-3 0 9992 2 35933 98.4060 299.9178 0004150 289.7239 70.3513 14.61445192869657 ITUPSAT 1 1 35935U 09051E 26034.28425904 .00001145 00000-0 24767-3 0 9999 2 35935 98.4150 299.0496 0006434 300.5727 59.4837 14.60186562869192 XIWANG-1 (HOPE-1) 1 36122U 09072B 26034.48527113 -.00000432 00000-0 -10143-2 0 9990 2 36122 100.3854 350.5596 0007421 174.8336 185.2854 13.16432609775418 TISAT 1 1 36799U 10035E 26034.28308263 .00023417 00000-0 91366-3 0 9995 2 36799 98.0632 329.6421 0003571 41.7763 318.3746 15.25928911847245 JUGNU 1 37839U 11058B 26034.42294150 .00000501 00000-0 12198-3 0 9997 2 37839 19.9620 41.0642 0018721 39.7784 112.9414 14.13725036740075 SRMSAT 1 37841U 11058D 26034.47606606 .00000453 00000-0 10184-3 0 9997 2 37841 19.9707 148.7770 0011642 172.3815 260.6463 14.11534163738906 HORYU 2 1 38340U 12025D 26034.31928748 .00004557 00000-0 47825-3 0 9995 2 38340 98.1975 162.0428 0007350 258.3221 101.7170 14.90022150728783 STRAND 1 1 39090U 13009E 26034.44767379 .00000414 00000-0 15372-3 0 9996 2 39090 98.3854 217.9965 0007569 270.7996 89.2324 14.37062305677858 CUBEBUG 1 1 39153U 13018D 26034.40326881 .00004654 00000-0 41760-3 0 9991 2 39153 98.1463 188.6196 0011247 229.2868 130.7376 14.96224965691051 ZACUBE 1 39417U 13066B 26034.37807230 .00008504 00000-0 67867-3 0 9999 2 39417 97.8164 356.0421 0041165 338.4488 21.5000 14.99870845660664 TRITON 1 1 39427U 13066M 26034.55362144 .00005038 00000-0 61381-3 0 9994 2 39427 97.8318 307.4314 0090201 310.5606 48.7778 14.80958715654305 GOMX 1 1 39430U 13066Q 26034.56359538 .00003548 00000-0 53969-3 0 9999 2 39430 97.6576 243.3944 0130308 146.1031 214.8590 14.68943456650292 HUMSAT D 1 39433U 13066T 26034.46179438 .00248212 00000-0 16462-2 0 9995 2 39433 97.4952 44.3786 0003030 52.6074 307.5466 15.74772341666035 CUBEBUG 2 1 39440U 13066AA 26034.31004872 .00004743 00000-0 45113-3 0 9991 2 39440 97.8772 342.9536 0060530 110.4829 250.2901 14.92535778657012 FUNCUBE 1 1 39444U 13066AE 26034.39204065 .00012652 00000-0 83145-3 0 9994 2 39444 97.8133 3.3806 0036408 300.4204 59.3427 15.07195789659496 UWE-3 1 39446U 13066AG 26034.41607619 .00007104 00000-0 62611-3 0 9992 2 39446 97.8548 349.8405 0051786 47.1426 313.4128 14.95717049657572 UNISAT 6 1 40012U 14033C 26034.43369264 .00005306 00000-0 58205-3 0 9997 2 40012 97.7664 189.7255 0046438 148.2607 212.1423 14.87336431626276 DUCHIFAT 1 1 40021U 14033M 26034.04534816 .00043955 00000-0 90557-3 0 9999 2 40021 98.0705 76.4972 0005853 186.4440 173.6733 15.45776570634911 QB50P1 1 40025U 14033R 26034.45645395 .00011640 00000-0 61367-3 0 9996 2 40025 98.0991 36.4534 0008121 335.9491 24.1360 15.15727557632754 OBJECT G 1 40905U 15049G 26034.49979108 .00033659 00000-0 47062-3 0 9997 2 40905 97.4775 71.3903 0005953 7.1459 352.9879 15.56752720575583 LILACSAT 2 1 40908U 15049K 26034.49902396 .00019795 00000-0 39697-3 0 9995 2 40908 97.4853 66.5619 0008373 30.5719 329.6017 15.46707501575054 LQSAT 1 40958U 15057A 26034.51382867 .00001528 00000-0 22542-3 0 9993 2 40958 97.6625 34.5669 0016988 351.7832 8.3098 14.76569681555586 CHUBUSAT 2 1 41338U 16012B 26034.52405375 .00007879 00000-0 35908-3 0 9994 2 41338 30.9981 117.5376 0009403 152.9985 207.1146 15.19220630548069 CHUBUSAT 3 1 41339U 16012C 26034.52232321 .00006875 00000-0 33178-3 0 9996 2 41339 31.0054 124.1204 0009716 145.8029 214.3238 15.17187901547875 PRATHAM 1 41783U 16059A 26034.42903211 .00001050 00000-0 19460-3 0 9990 2 41783 97.8294 37.2074 0029955 285.5615 74.2284 14.66967940499909 ALSAT 1N 1 41789U 16059G 26034.49111065 .00001444 00000-0 25309-3 0 9997 2 41789 97.8017 43.8131 0024587 255.0684 104.7800 14.69032259500375